This is the latest recevied weather packets stored in our database for station/object PA1CG-7. If no packets are shown the sender has not sent any weather packets the latest 10 day(s).
| Time | Temp. | Humidity | Pressure | Rain* | Wind** | Luminosity | Snow |
|---|---|---|---|---|---|---|---|
| 1778157736 | 16.11° C | 63% | 1016.6 hPa | 0 mm | - | - | - |
| 1778157136 | 15.56° C | 64% | 1016.5 hPa | 0 mm | - | - | - |
| 1778156536 | 15° C | 64% | 1016.6 hPa | 0 mm | - | - | - |
| 1778155936 | 15.56° C | 64% | 1016.6 hPa | 0 mm | - | - | - |
| 1778155336 | 16.11° C | 61% | 1016.5 hPa | 0 mm | - | - | - |
| 1778154736 | 16.11° C | 61% | 1016.6 hPa | 0 mm | - | - | - |
| 1778154136 | 16.11° C | 60% | 1016.6 hPa | 0 mm | - | - | - |
| 1778153536 | 16.67° C | 58% | 1016.6 hPa | 0 mm | - | - | - |
| 1778152936 | 17.22° C | 58% | 1016.5 hPa | 0 mm | - | - | - |
| 1778152336 | 16.67° C | 59% | 1016.5 hPa | 0 mm | - | - | - |
| 1778151736 | 17.22° C | 58% | 1016.5 hPa | 0 mm | - | - | - |
| 1778151136 | 17.22° C | 58% | 1016.5 hPa | 0 mm | - | - | - |
| 1778150536 | 16.67° C | 59% | 1016.5 hPa | 0 mm | - | - | - |
| 1778149936 | 16.11° C | 60% | 1016.5 hPa | 0 mm | - | - | - |
| 1778149336 | 16.11° C | 61% | 1016.5 hPa | 0 mm | - | - | - |
| 1778148736 | 16.11° C | 61% | 1016.5 hPa | 0 mm | - | - | - |
| 1778148136 | 16.11° C | 61% | 1016.5 hPa | 0 mm | - | - | - |
| 1778147536 | 15.56° C | 61% | 1016.4 hPa | 0 mm | - | - | - |
| 1778146936 | 15.56° C | 61% | 1016.4 hPa | 0 mm | - | - | - |
| 1778146336 | 15.56° C | 60% | 1016.2 hPa | 0 mm | - | - | - |
| 1778145736 | 16.11° C | 60% | 1016.2 hPa | 0 mm | - | - | - |
| 1778145136 | 15.56° C | 60% | 1016.1 hPa | 0 mm | - | - | - |
| 1778144536 | 15.56° C | 59% | 1016.1 hPa | 0 mm | - | - | - |
| 1778143936 | 15° C | 56% | 1016.1 hPa | 0 mm | - | - | - |
| 1778143336 | 15° C | 58% | 1016 hPa | 0 mm | - | - | - |
* Rain latest hour (hover to see other rain measurements)
** Current wind speed in m/s (hover to see current wind gust speed)